Time,TemperatureF,DewpointF,PressureIn,WindDirection,WindDirectionDegrees,WindSpeedMPH,WindSpeedGustMPH,Humidity,HourlyPrecipIn,Conditions,Clouds,dailyrainin,SoftwareType,DateUTC
2013-08-25 00:00:00,78.9,72.9,29.76,SW,216,1.0,8.0,82,0.00,,SKC,0.00,VWS V14.01,2013-08-25 05:00:00,
2013-08-25 00:06:00,79.1,73.1,29.76,SW,215,0.0,1.0,82,0.00,,SKC,0.00,VWS V14.01,2013-08-25 05:06:00,
2013-08-25 00:11:00,79.2,73.2,29.76,SW,215,0.0,4.0,82,0.00,,SKC,0.00,VWS V14.01,2013-08-25 05:11:00,
2013-08-25 00:16:00,79.2,72.9,29.76,SW,215,5.0,5.0,81,0.00,,SKC,0.00,VWS V14.01,2013-08-25 05:16:00,
2013-08-25 00:21:00,79.4,73.1,29.76,South,185,0.0,5.0,81,0.00,,SKC,0.00,VWS V14.01,2013-08-25 05:21:00,
2013-08-25 00:26:00,79.5,73.2,29.76,South,184,0.0,5.0,81,0.00,,SKC,0.00,VWS V14.01,2013-08-25 05:26:00,
2013-08-25 00:30:00,78.9,72.9,29.75,SE,144,0.0,5.0,82,0.00,,SKC,0.00,VWS V14.01,2013-08-25 05:30:00,
2013-08-25 00:31:00,79.5,73.2,29.76,South,185,0.0,0.0,81,0.00,,SKC,0.00,VWS V14.01,2013-08-25 05:31:00,
2013-08-25 00:37:00,79.6,72.9,29.76,South,185,0.0,6.0,80,0.00,,SKC,0.00,VWS V14.01,2013-08-25 05:37:00,
2013-08-25 00:42:00,79.5,73.2,29.76,South,178,0.0,6.0,81,0.00,,SKC,0.00,VWS V14.01,2013-08-25 05:42:00,
2013-08-25 00:47:00,79.4,72.7,29.76,SSE,168,4.0,6.0,80,0.00,,SKC,0.00,VWS V14.01,2013-08-25 05:47:00,
2013-08-25 00:52:00,79.5,72.8,29.76,SSE,168,0.0,6.0,80,0.00,,SKC,0.00,VWS V14.01,2013-08-25 05:52:00,
2013-08-25 00:57:00,79.6,72.9,29.76,SSW,196,1.0,6.0,80,0.00,,SKC,0.00,VWS V14.01,2013-08-25 05:57:00,
2013-08-25 01:00:00,78.9,72.9,29.76,SW,216,0.0,8.0,82,0.00,,SKC,0.00,VWS V14.01,2013-08-25 06:00:00,
2013-08-25 01:02:00,79.7,72.6,29.76,SSW,196,4.0,4.0,79,0.00,,SKC,0.00,VWS V14.01,2013-08-25 06:02:00,
2013-08-25 01:07:00,79.7,72.6,29.76,SSW,209,0.0,5.0,79,0.00,,SKC,0.00,VWS V14.01,2013-08-25 06:07:00,
2013-08-25 01:12:00,79.6,72.5,29.77,WSW,251,0.0,6.0,79,0.00,,SKC,0.00,VWS V14.01,2013-08-25 06:12:00,
2013-08-25 01:17:00,79.6,72.5,29.77,WSW,250,0.0,6.0,79,0.00,,SKC,0.00,VWS V14.01,2013-08-25 06:17:00,
2013-08-25 01:22:00,79.7,72.6,29.77,SW,219,0.0,6.0,79,0.00,,SKC,0.00,VWS V14.01,2013-08-25 06:22:00,
2013-08-25 01:27:00,79.8,72.7,29.76,WSW,244,1.0,6.0,79,0.00,,SKC,0.00,VWS V14.01,2013-08-25 06:27:00,
2013-08-25 01:30:00,79.5,73.2,29.76,South,185,0.0,5.0,81,0.00,,SKC,0.00,VWS V14.01,2013-08-25 06:30:00,
2013-08-25 01:32:00,79.8,72.7,29.76,WSW,251,4.0,7.0,79,0.00,,SKC,0.00,VWS V14.01,2013-08-25 06:32:00,
2013-08-25 01:37:00,79.7,72.6,29.76,SSW,200,0.0,7.0,79,0.00,,SKC,0.00,VWS V14.01,2013-08-25 06:37:00,
2013-08-25 01:42:00,79.8,72.7,29.76,SW,217,0.0,7.0,79,0.00,,SKC,0.00,VWS V14.01,2013-08-25 06:42:00,
2013-08-25 01:47:00,79.8,72.7,29.76,SSW,213,4.0,7.0,79,0.00,,SKC,0.00,VWS V14.01,2013-08-25 06:47:00,
2013-08-25 01:52:00,80.0,72.5,29.77,SW,220,0.0,7.0,78,0.00,,SKC,0.00,VWS V14.01,2013-08-25 06:52:00,
2013-08-25 01:57:00,80.0,72.5,29.76,SW,216,4.0,9.0,78,0.00,,SKC,0.00,VWS V14.01,2013-08-25 06:57:00,
2013-08-25 02:00:00,79.7,72.6,29.76,SSW,198,0.0,6.0,79,0.00,,SKC,0.00,VWS V14.01,2013-08-25 07:00:00,
2013-08-25 02:02:00,80.0,72.5,29.76,SSE,158,1.0,5.0,78,0.00,,SKC,0.00,VWS V14.01,2013-08-25 07:02:00,
2013-08-25 02:07:00,80.0,72.5,29.76,SW,219,5.0,8.0,78,0.00,,SKC,0.00,VWS V14.01,2013-08-25 07:07:00,
2013-08-25 02:12:00,79.9,72.4,29.76,SW,216,0.0,8.0,78,0.00,,SKC,0.00,VWS V14.01,2013-08-25 07:12:00,
2013-08-25 02:18:00,79.8,72.7,29.76,SSW,203,4.0,8.0,79,0.00,,SKC,0.00,VWS V14.01,2013-08-25 07:18:00,
2013-08-25 02:23:00,79.8,72.7,29.76,South,191,4.0,8.0,79,0.00,,SKC,0.00,VWS V14.01,2013-08-25 07:23:00,
2013-08-25 02:28:00,79.8,72.7,29.76,SSW,195,1.0,8.0,79,0.00,,SKC,0.00,VWS V14.01,2013-08-25 07:28:00,
2013-08-25 02:30:00,79.7,72.6,29.76,South,182,0.0,6.0,79,0.00,,SKC,0.00,VWS V14.01,2013-08-25 07:30:00,
2013-08-25 02:33:00,79.7,72.6,29.76,South,178,1.0,4.0,79,0.00,,SKC,0.00,VWS V14.01,2013-08-25 07:33:00,
2013-08-25 02:38:00,79.7,72.6,29.77,SSW,198,2.0,8.0,79,0.00,,SKC,0.00,VWS V14.01,2013-08-25 07:38:00,
2013-08-25 02:43:00,79.7,72.6,29.77,WSW,252,1.0,8.0,79,0.00,,SKC,0.00,VWS V14.01,2013-08-25 07:43:00,
2013-08-25 02:48:00,79.7,72.6,29.76,SW,215,2.0,8.0,79,0.00,,SKC,0.00,VWS V14.01,2013-08-25 07:48:00,
2013-08-25 02:53:00,79.6,72.5,29.76,South,188,2.0,8.0,79,0.00,,SKC,0.00,VWS V14.01,2013-08-25 07:53:00,
2013-08-25 02:58:00,79.6,72.5,29.76,SSW,196,4.0,8.0,79,0.00,,SKC,0.00,VWS V14.01,2013-08-25 07:58:00,
2013-08-25 03:00:00,80.0,72.5,29.76,SSE,155,5.0,9.0,78,0.00,,SKC,0.00,VWS V14.01,2013-08-25 08:00:00,
2013-08-25 03:03:00,79.4,72.7,29.76,SSW,199,2.0,5.0,80,0.00,,SKC,0.00,VWS V14.01,2013-08-25 08:03:00,
2013-08-25 03:08:00,79.5,72.4,29.77,SSW,213,5.0,10.0,79,0.00,,SKC,0.00,VWS V14.01,2013-08-25 08:08:00,
2013-08-25 03:13:00,79.5,72.8,29.76,SW,219,0.0,10.0,80,0.00,,SKC,0.00,VWS V14.01,2013-08-25 08:13:00,
2013-08-25 03:18:00,79.4,72.7,29.77,SW,219,0.0,10.0,80,0.00,,SKC,0.00,VWS V14.01,2013-08-25 08:18:00,
2013-08-25 03:23:00,79.2,72.5,29.76,SSW,207,2.0,10.0,80,0.00,,SKC,0.00,VWS V14.01,2013-08-25 08:23:00,
2013-08-25 03:28:00,79.1,72.4,29.77,SSW,209,0.0,10.0,80,0.00,,SKC,0.00,VWS V14.01,2013-08-25 08:28:00,
2013-08-25 03:30:00,79.8,72.7,29.77,SSW,197,0.0,8.0,79,0.00,,SKC,0.00,VWS V14.01,2013-08-25 08:30:00,
2013-08-25 03:33:00,79.0,72.7,29.77,SSW,210,0.0,3.0,81,0.00,,SKC,0.00,VWS V14.01,2013-08-25 08:33:00,
2013-08-25 03:38:00,78.8,72.5,29.77,SSW,211,3.0,6.0,81,0.00,,SKC,0.00,VWS V14.01,2013-08-25 08:38:00,
2013-08-25 03:43:00,78.9,72.6,29.77,SSW,213,0.0,7.0,81,0.00,,SKC,0.00,VWS V14.01,2013-08-25 08:43:00,
2013-08-25 03:48:00,78.9,72.6,29.76,SSW,201,0.0,7.0,81,0.00,,SKC,0.00,VWS V14.01,2013-08-25 08:48:00,
2013-08-25 03:53:00,78.7,72.4,29.77,SSW,207,3.0,7.0,81,0.00,,SKC,0.00,VWS V14.01,2013-08-25 08:53:00,
2013-08-25 03:58:00,78.7,72.4,29.77,SSW,207,3.0,7.0,81,0.00,,SKC,0.00,VWS V14.01,2013-08-25 08:58:00,
2013-08-25 04:00:00,79.4,72.7,29.76,SSW,198,0.0,8.0,80,0.00,,SKC,0.00,VWS V14.01,2013-08-25 09:00:00,
2013-08-25 04:04:00,78.7,72.4,29.77,SSW,206,0.0,5.0,81,0.00,,SKC,0.00,VWS V14.01,2013-08-25 09:04:00,
2013-08-25 04:09:00,78.7,72.4,29.77,SW,214,2.0,5.0,81,0.00,,SKC,0.00,VWS V14.01,2013-08-25 09:09:00,
2013-08-25 04:14:00,78.7,72.4,29.77,SSW,202,0.0,5.0,81,0.00,,SKC,0.00,VWS V14.01,2013-08-25 09:14:00,
2013-08-25 04:19:00,78.7,72.4,29.77,SW,217,0.0,7.0,81,0.00,,SKC,0.00,VWS V14.01,2013-08-25 09:19:00,
2013-08-25 04:24:00,78.7,72.4,29.77,SW,218,0.0,7.0,81,0.00,,SKC,0.00,VWS V14.01,2013-08-25 09:24:00,
2013-08-25 04:29:00,78.7,72.4,29.77,SW,219,0.0,7.0,81,0.00,,SKC,0.00,VWS V14.01,2013-08-25 09:29:00,
2013-08-25 04:30:00,79.1,72.8,29.77,SSW,210,2.0,10.0,81,0.00,,SKC,0.00,VWS V14.01,2013-08-25 09:30:00,
2013-08-25 04:34:00,78.7,72.4,29.77,SW,217,0.0,0.0,81,0.00,,SKC,0.00,VWS V14.01,2013-08-25 09:34:00,
2013-08-25 04:39:00,78.7,72.4,29.77,SW,218,0.0,0.0,81,0.00,,SKC,0.00,VWS V14.01,2013-08-25 09:39:00,
2013-08-25 04:44:00,78.6,72.7,29.77,SW,219,0.0,0.0,82,0.00,,SKC,0.00,VWS V14.01,2013-08-25 09:44:00,
2013-08-25 04:49:00,78.5,72.6,29.77,SW,217,0.0,6.0,82,0.00,,SKC,0.00,VWS V14.01,2013-08-25 09:49:00,
2013-08-25 04:54:00,78.5,72.6,29.77,SW,217,0.0,6.0,82,0.00,,SKC,0.00,VWS V14.01,2013-08-25 09:54:00,
2013-08-25 04:59:00,78.4,72.4,29.77,SW,219,0.0,6.0,82,0.00,,SKC,0.00,VWS V14.01,2013-08-25 09:59:00,
2013-08-25 05:00:00,78.7,72.4,29.77,SSW,209,2.0,7.0,81,0.00,,SKC,0.00,VWS V14.01,2013-08-25 10:00:00,
2013-08-25 05:04:00,78.4,72.4,29.77,SW,218,0.0,4.0,82,0.00,,SKC,0.00,VWS V14.01,2013-08-25 10:04:00,
2013-08-25 05:09:00,78.3,72.4,29.77,SW,219,0.0,4.0,82,0.00,,SKC,0.00,VWS V14.01,2013-08-25 10:09:00,
2013-08-25 05:14:00,78.3,72.4,29.77,SW,218,0.0,4.0,82,0.00,,SKC,0.00,VWS V14.01,2013-08-25 10:14:00,
2013-08-25 05:19:00,78.3,72.4,29.77,SW,217,0.0,4.0,82,0.00,,SKC,0.00,VWS V14.01,2013-08-25 10:19:00,
2013-08-25 05:24:00,78.5,72.2,29.77,SSE,166,0.0,8.0,81,0.00,,SKC,0.00,VWS V14.01,2013-08-25 10:24:00,
2013-08-25 05:29:00,78.7,72.4,29.77,SSW,192,0.0,8.0,81,0.00,,SKC,0.00,VWS V14.01,2013-08-25 10:29:00,
2013-08-25 05:30:00,78.7,72.8,29.77,SW,219,0.0,7.0,82,0.00,,SKC,0.00,VWS V14.01,2013-08-25 10:30:00,
2013-08-25 05:34:00,78.7,72.4,29.77,SW,215,0.0,3.0,81,0.00,,SKC,0.00,VWS V14.01,2013-08-25 10:34:00,
2013-08-25 05:39:00,78.7,72.4,29.77,SW,214,0.0,3.0,81,0.00,,SKC,0.00,VWS V14.01,2013-08-25 10:39:00,
2013-08-25 05:44:00,78.7,72.4,29.77,SSW,203,0.0,9.0,81,0.00,,SKC,0.00,VWS V14.01,2013-08-25 10:44:00,
2013-08-25 05:49:00,78.7,72.4,29.77,SSW,205,0.0,9.0,81,0.00,,SKC,0.00,VWS V14.01,2013-08-25 10:49:00,
2013-08-25 05:54:00,78.7,72.4,29.78,SSW,209,0.0,9.0,81,0.00,,SKC,0.00,VWS V14.01,2013-08-25 10:54:00,
2013-08-25 05:59:00,78.7,72.4,29.78,SSW,201,0.0,9.0,81,0.00,,SKC,0.00,VWS V14.01,2013-08-25 10:59:00,
2013-08-25 06:00:00,78.4,72.4,29.77,SW,218,0.0,6.0,82,0.00,,SKC,0.00,VWS V14.01,2013-08-25 11:00:00,
2013-08-25 06:04:00,78.7,72.0,29.78,SSW,201,0.0,0.0,80,0.00,,SKC,0.00,VWS V14.01,2013-08-25 11:04:00,
2013-08-25 06:09:00,78.7,72.4,29.78,SSW,202,0.0,2.0,81,0.00,,SKC,0.00,VWS V14.01,2013-08-25 11:09:00,
2013-08-25 06:14:00,78.7,72.0,29.78,SW,215,2.0,9.0,80,0.00,,SKC,0.00,VWS V14.01,2013-08-25 11:14:00,
2013-08-25 06:19:00,78.8,72.1,29.78,SW,215,0.0,9.0,80,0.00,,SKC,0.00,VWS V14.01,2013-08-25 11:19:00,
2013-08-25 06:24:00,78.7,72.0,29.79,SW,215,0.0,9.0,80,0.00,,SKC,0.00,VWS V14.01,2013-08-25 11:24:00,
2013-08-25 06:29:00,78.7,72.0,29.78,South,184,0.0,9.0,80,0.00,,SKC,0.00,VWS V14.01,2013-08-25 11:29:00,
2013-08-25 06:30:00,78.7,72.4,29.77,South,190,2.0,8.0,81,0.00,,SKC,0.00,VWS V14.01,2013-08-25 11:30:00,
2013-08-25 06:34:00,78.7,72.0,29.79,South,179,1.0,4.0,80,0.00,,SKC,0.00,VWS V14.01,2013-08-25 11:34:00,
2013-08-25 06:39:00,78.7,72.4,29.79,South,182,0.0,4.0,81,0.00,,SKC,0.00,VWS V14.01,2013-08-25 11:39:00,
2013-08-25 06:44:00,78.7,72.4,29.79,South,178,0.0,4.0,81,0.00,,SKC,0.00,VWS V14.01,2013-08-25 11:44:00,
2013-08-25 06:50:00,78.7,72.4,29.79,SSW,200,0.0,8.0,81,0.00,,SKC,0.00,VWS V14.01,2013-08-25 11:50:00,
2013-08-25 06:55:00,78.7,72.4,29.80,SSW,207,0.0,8.0,81,0.00,,SKC,0.00,VWS V14.01,2013-08-25 11:55:00,
2013-08-25 07:00:00,78.7,72.4,29.80,SSW,209,5.0,8.0,81,0.00,,SKC,0.00,VWS V14.01,2013-08-25 12:00:00,
2013-08-25 07:05:00,78.7,72.4,29.80,SW,215,0.0,6.0,81,0.00,,SKC,0.00,VWS V14.01,2013-08-25 12:05:00,
2013-08-25 07:10:00,78.9,72.2,29.80,SW,216,0.0,6.0,80,0.00,,SKC,0.00,VWS V14.01,2013-08-25 12:10:00,
2013-08-25 07:15:00,79.1,72.4,29.80,SW,220,0.0,6.0,80,0.00,,SKC,0.00,VWS V14.01,2013-08-25 12:15:00,
2013-08-25 07:20:00,79.2,72.5,29.81,SW,221,3.0,9.0,80,0.00,,SKC,0.00,VWS V14.01,2013-08-25 12:20:00,
2013-08-25 07:25:00,79.1,72.8,29.81,SW,221,0.0,9.0,81,0.00,,SKC,0.00,VWS V14.01,2013-08-25 12:25:00,
2013-08-25 07:30:00,79.0,72.3,29.81,SW,224,0.0,9.0,80,0.00,,SKC,0.00,VWS V14.01,2013-08-25 12:30:00,
2013-08-25 07:35:00,78.8,72.5,29.81,SW,232,6.0,6.0,81,0.00,,SKC,0.00,VWS V14.01,2013-08-25 12:35:00,
2013-08-25 07:40:00,78.7,72.4,29.81,SW,232,0.0,6.0,81,0.00,,SKC,0.00,VWS V14.01,2013-08-25 12:40:00,
2013-08-25 07:45:00,78.7,72.8,29.81,SW,232,0.0,6.0,82,0.00,,SKC,0.00,VWS V14.01,2013-08-25 12:45:00,
2013-08-25 07:50:00,78.7,72.8,29.82,SW,231,0.0,6.0,82,0.00,,SKC,0.00,VWS V14.01,2013-08-25 12:50:00,
2013-08-25 07:55:00,78.7,73.1,29.82,SW,231,0.0,6.0,83,0.00,,SKC,0.00,VWS V14.01,2013-08-25 12:55:00,
2013-08-25 08:00:00,78.7,72.8,29.81,SW,231,0.0,6.0,82,0.00,,SKC,0.00,VWS V14.01,2013-08-25 13:00:00,
2013-08-25 08:05:00,78.7,73.1,29.82,SW,231,0.0,4.0,83,0.00,,SKC,0.00,VWS V14.01,2013-08-25 13:05:00,
2013-08-25 08:10:00,78.5,72.9,29.82,SW,231,0.0,4.0,83,0.00,,SKC,0.00,VWS V14.01,2013-08-25 13:10:00,
2013-08-25 08:15:00,78.4,72.8,29.82,SW,232,0.0,4.0,83,0.00,,SKC,0.00,VWS V14.01,2013-08-25 13:15:00,
2013-08-25 08:20:00,78.1,72.5,29.82,SW,232,2.0,4.0,83,0.00,,SKC,0.00,VWS V14.01,2013-08-25 13:20:00,
2013-08-25 08:25:00,78.0,72.4,29.82,SW,234,2.0,6.0,83,0.00,,SKC,0.00,VWS V14.01,2013-08-25 13:25:00,
2013-08-25 08:30:00,77.9,72.3,29.82,SW,234,0.0,6.0,83,0.00,,SKC,0.00,VWS V14.01,2013-08-25 13:30:00,
2013-08-25 08:35:00,77.8,72.6,29.82,SW,234,0.0,0.0,84,0.00,,SKC,0.00,VWS V14.01,2013-08-25 13:35:00,
2013-08-25 08:40:00,77.8,72.6,29.82,SW,234,0.0,2.0,84,0.00,,SKC,0.00,VWS V14.01,2013-08-25 13:40:00,
2013-08-25 08:45:00,77.8,72.6,29.82,SW,234,0.0,2.0,84,0.00,,SKC,0.00,VWS V14.01,2013-08-25 13:45:00,
2013-08-25 08:50:00,78.1,72.9,29.82,SW,234,0.0,2.0,84,0.00,,SKC,0.00,VWS V14.01,2013-08-25 13:50:00,
2013-08-25 08:55:00,78.5,72.9,29.82,SW,234,0.0,2.0,83,0.00,,SKC,0.00,VWS V14.01,2013-08-25 13:55:00,
2013-08-25 09:00:00,78.7,72.8,29.81,SW,231,0.0,6.0,82,0.00,,SKC,0.00,VWS V14.01,2013-08-25 14:00:00,
2013-08-25 09:01:00,78.7,73.1,29.82,SW,234,0.0,2.0,83,0.00,,SKC,0.00,VWS V14.01,2013-08-25 14:01:00,
2013-08-25 09:06:00,79.1,73.1,29.82,SW,234,1.0,5.0,82,0.00,,SKC,0.00,VWS V14.01,2013-08-25 14:06:00,
2013-08-25 09:11:00,79.4,73.4,29.82,SW,234,0.0,5.0,82,0.00,,SKC,0.00,VWS V14.01,2013-08-25 14:11:00,
2013-08-25 09:16:00,79.8,73.4,29.81,SW,232,0.0,7.0,81,0.00,,SKC,0.00,VWS V14.01,2013-08-25 14:16:00,
2013-08-25 09:21:00,80.1,73.4,29.81,SW,229,1.0,7.0,80,0.00,,SKC,0.00,VWS V14.01,2013-08-25 14:21:00,
2013-08-25 09:26:00,80.3,73.6,29.81,SW,227,4.0,7.0,80,0.00,,SKC,0.00,VWS V14.01,2013-08-25 14:26:00,
2013-08-25 09:30:00,77.9,72.3,29.82,SW,234,0.0,6.0,83,0.00,,SKC,0.00,VWS V14.01,2013-08-25 14:30:00,
2013-08-25 09:31:00,80.5,73.4,29.80,SSW,207,0.0,2.0,79,0.00,,SKC,0.00,VWS V14.01,2013-08-25 14:31:00,
2013-08-25 09:36:00,80.8,73.7,29.80,SSW,195,4.0,6.0,79,0.00,,SKC,0.00,VWS V14.01,2013-08-25 14:36:00,
2013-08-25 09:41:00,81.0,73.5,29.80,SW,217,4.0,7.0,78,0.00,,SKC,0.00,VWS V14.01,2013-08-25 14:41:00,
2013-08-25 09:46:00,81.4,73.9,29.80,SW,236,2.0,10.0,78,0.00,,SKC,0.00,VWS V14.01,2013-08-25 14:46:00,
2013-08-25 09:51:00,81.6,74.1,29.80,SW,229,0.0,10.0,78,0.00,,SKC,0.00,VWS V14.01,2013-08-25 14:51:00,
2013-08-25 09:56:00,81.7,74.2,29.80,SW,215,4.0,10.0,78,0.00,,SKC,0.00,VWS V14.01,2013-08-25 14:56:00,
2013-08-25 10:00:00,78.7,73.1,29.82,SW,234,0.0,2.0,83,0.00,,SKC,0.00,VWS V14.01,2013-08-25 15:00:00,
2013-08-25 10:01:00,81.9,74.0,29.80,SW,215,0.0,4.0,77,0.00,,SKC,0.00,VWS V14.01,2013-08-25 15:01:00,
2013-08-25 10:06:00,81.9,74.0,29.80,SSW,211,3.0,6.0,77,0.00,,SKC,0.00,VWS V14.01,2013-08-25 15:06:00,
2013-08-25 10:11:00,82.0,74.1,29.80,SW,229,0.0,7.0,77,0.00,,SKC,0.00,VWS V14.01,2013-08-25 15:11:00,
2013-08-25 10:16:00,82.1,74.2,29.80,SW,228,1.0,7.0,77,0.00,,SKC,0.00,VWS V14.01,2013-08-25 15:16:00,
2013-08-25 10:21:00,82.1,73.8,29.80,SW,231,0.0,7.0,76,0.00,,SKC,0.00,VWS V14.01,2013-08-25 15:21:00,
2013-08-25 10:26:00,82.2,74.3,29.80,SW,229,3.0,7.0,77,0.00,,SKC,0.00,VWS V14.01,2013-08-25 15:26:00,
2013-08-25 10:30:00,80.5,73.4,29.80,SSW,207,2.0,9.0,79,0.00,,SKC,0.00,VWS V14.01,2013-08-25 15:30:00,
2013-08-25 10:31:00,82.3,74.4,29.80,SSE,165,0.0,1.0,77,0.00,,SKC,0.00,VWS V14.01,2013-08-25 15:31:00,
2013-08-25 10:36:00,82.5,74.2,29.81,SSW,210,6.0,6.0,76,0.00,,SKC,0.00,VWS V14.01,2013-08-25 15:36:00,
2013-08-25 10:41:00,82.7,74.4,29.81,SSW,210,0.0,6.0,76,0.00,,SKC,0.00,VWS V14.01,2013-08-25 15:41:00,
2013-08-25 10:46:00,82.6,74.3,29.81,SSW,213,0.0,6.0,76,0.00,,SKC,0.00,VWS V14.01,2013-08-25 15:46:00,
2013-08-25 10:51:00,82.7,74.8,29.81,SW,215,1.0,6.0,77,0.00,,SKC,0.00,VWS V14.01,2013-08-25 15:51:00,
2013-08-25 10:56:00,82.7,74.4,29.80,South,183,5.0,8.0,76,0.00,,SKC,0.00,VWS V14.01,2013-08-25 15:56:00,
2013-08-25 11:00:00,81.9,74.0,29.80,SW,215,3.0,10.0,77,0.00,,SKC,0.00,VWS V14.01,2013-08-25 16:00:00,
2013-08-25 11:01:00,82.8,74.1,29.80,SSW,196,2.0,5.0,75,0.00,,SKC,0.00,VWS V14.01,2013-08-25 16:01:00,
2013-08-25 11:06:00,82.9,74.2,29.80,SSW,207,2.0,7.0,75,0.00,,SKC,0.00,VWS V14.01,2013-08-25 16:06:00,
2013-08-25 11:11:00,83.2,74.8,29.79,SW,221,3.0,7.0,76,0.00,,SKC,0.00,VWS V14.01,2013-08-25 16:11:00,
2013-08-25 11:16:00,83.4,74.7,29.79,SSW,201,0.0,7.0,75,0.00,,SKC,0.00,VWS V14.01,2013-08-25 16:16:00,
2013-08-25 11:21:00,83.6,74.8,29.79,SSW,210,0.0,7.0,75,0.00,,SKC,0.00,VWS V14.01,2013-08-25 16:21:00,
2013-08-25 11:27:00,84.0,74.4,29.79,South,190,6.0,7.0,73,0.00,,SKC,0.00,VWS V14.01,2013-08-25 16:27:00,
2013-08-25 11:30:00,82.3,74.4,29.80,SSE,165,0.0,7.0,77,0.00,,SKC,0.00,VWS V14.01,2013-08-25 16:30:00,
2013-08-25 11:32:00,84.1,74.9,29.79,South,189,0.0,6.0,74,0.00,,SKC,0.00,VWS V14.01,2013-08-25 16:32:00,
2013-08-25 11:37:00,84.1,74.5,29.79,SW,215,0.0,7.0,73,0.00,,SKC,0.00,VWS V14.01,2013-08-25 16:37:00,
2013-08-25 11:42:00,84.3,74.7,29.79,SW,234,1.0,9.0,73,0.00,,SKC,0.00,VWS V14.01,2013-08-25 16:42:00,
2013-08-25 11:47:00,84.5,74.5,29.78,SSW,202,1.0,9.0,72,0.00,,SKC,0.00,VWS V14.01,2013-08-25 16:47:00,
2013-08-25 11:52:00,84.8,74.8,29.78,SW,217,2.0,9.0,72,0.00,,SKC,0.00,VWS V14.01,2013-08-25 16:52:00,
2013-08-25 11:57:00,85.0,75.0,29.78,SW,220,6.0,9.0,72,0.00,,SKC,0.00,VWS V14.01,2013-08-25 16:57:00,
2013-08-25 12:00:00,82.8,74.1,29.80,South,189,1.0,8.0,75,0.00,,SKC,0.00,VWS V14.01,2013-08-25 17:00:00,
2013-08-25 12:02:00,84.9,74.9,29.78,SW,225,1.0,5.0,72,0.00,,SKC,0.00,VWS V14.01,2013-08-25 17:02:00,
2013-08-25 12:07:00,85.0,74.6,29.78,SSW,197,5.0,9.0,71,0.00,,SKC,0.00,VWS V14.01,2013-08-25 17:07:00,
2013-08-25 12:12:00,85.3,75.2,29.78,SSW,199,0.0,9.0,72,0.00,,SKC,0.00,VWS V14.01,2013-08-25 17:12:00,
2013-08-25 12:17:00,85.8,75.3,29.77,SSW,198,0.0,9.0,71,0.00,,SKC,0.00,VWS V14.01,2013-08-25 17:17:00,
2013-08-25 12:22:00,85.9,75.4,29.77,SW,221,2.0,9.0,71,0.00,,SKC,0.00,VWS V14.01,2013-08-25 17:22:00,
2013-08-25 12:27:00,86.2,75.3,29.77,SW,221,0.0,9.0,70,0.00,,SKC,0.00,VWS V14.01,2013-08-25 17:27:00,
2013-08-25 12:30:00,84.0,74.8,29.79,South,186,0.0,10.0,74,0.00,,SKC,0.00,VWS V14.01,2013-08-25 17:30:00,
2013-08-25 12:32:00,86.5,75.1,29.77,SW,214,4.0,6.0,69,0.00,,SKC,0.00,VWS V14.01,2013-08-25 17:32:00,
2013-08-25 12:37:00,86.8,75.4,29.77,SSW,213,5.0,7.0,69,0.00,,SKC,0.00,VWS V14.01,2013-08-25 17:37:00,
2013-08-25 12:42:00,86.9,75.5,29.76,SW,220,10.0,10.0,69,0.00,,SKC,0.00,VWS V14.01,2013-08-25 17:42:00,
2013-08-25 12:48:00,87.0,75.6,29.76,SW,221,4.0,10.0,69,0.00,,SKC,0.00,VWS V14.01,2013-08-25 17:48:00,
2013-08-25 12:53:00,87.0,75.2,29.76,SSW,209,5.0,10.0,68,0.00,,SKC,0.00,VWS V14.01,2013-08-25 17:53:00,
2013-08-25 12:58:00,87.3,75.9,29.76,WSW,238,3.0,10.0,69,0.00,,SKC,0.00,VWS V14.01,2013-08-25 17:58:00,
2013-08-25 13:00:00,85.0,75.0,29.78,SW,227,2.0,9.0,72,0.00,,SKC,0.00,VWS V14.01,2013-08-25 18:00:00,
2013-08-25 13:03:00,87.9,76.0,29.76,SW,226,0.0,4.0,68,0.00,,SKC,0.00,VWS V14.01,2013-08-25 18:03:00,
2013-08-25 13:08:00,88.4,76.1,29.75,SW,217,2.0,8.0,67,0.00,,SKC,0.00,VWS V14.01,2013-08-25 18:08:00,
2013-08-25 13:13:00,88.6,76.2,29.75,SW,216,0.0,8.0,67,0.00,,SKC,0.00,VWS V14.01,2013-08-25 18:13:00,
2013-08-25 13:18:00,88.8,76.0,29.76,SW,223,1.0,9.0,66,0.00,,SKC,0.00,VWS V14.01,2013-08-25 18:18:00,
2013-08-25 13:23:00,89.1,76.3,29.76,SW,223,2.0,9.0,66,0.00,,SKC,0.00,VWS V14.01,2013-08-25 18:23:00,
2013-08-25 13:28:00,89.3,76.0,29.76,SW,221,0.0,9.0,65,0.00,,SKC,0.00,VWS V14.01,2013-08-25 18:28:00,
2013-08-25 13:30:00,86.4,75.5,29.77,SSW,194,4.0,9.0,70,0.00,,SKC,0.00,VWS V14.01,2013-08-25 18:30:00,
2013-08-25 13:33:00,89.7,76.4,29.75,SSW,203,4.0,6.0,65,0.00,,SKC,0.00,VWS V14.01,2013-08-25 18:33:00,
2013-08-25 13:38:00,90.0,76.2,29.75,SSW,192,3.0,6.0,64,0.00,,SKC,0.00,VWS V14.01,2013-08-25 18:38:00,
2013-08-25 13:43:00,90.1,76.3,29.75,SSW,205,2.0,7.0,64,0.00,,SKC,0.00,VWS V14.01,2013-08-25 18:43:00,
2013-08-25 13:48:00,90.1,76.3,29.75,SW,217,6.0,7.0,64,0.00,,SKC,0.00,VWS V14.01,2013-08-25 18:48:00,
2013-08-25 13:53:00,90.2,76.8,29.75,SW,220,0.0,7.0,65,0.00,,SKC,0.00,VWS V14.01,2013-08-25 18:53:00,
2013-08-25 13:58:00,90.4,76.6,29.75,SW,216,1.0,7.0,64,0.00,,SKC,0.00,VWS V14.01,2013-08-25 18:58:00,
2013-08-25 14:00:00,87.7,75.4,29.76,SW,226,0.0,10.0,67,0.00,,SKC,0.00,VWS V14.01,2013-08-25 19:00:00,
2013-08-25 14:03:00,90.6,76.3,29.75,South,169,1.0,7.0,63,0.00,,SKC,0.00,VWS V14.01,2013-08-25 19:03:00,
2013-08-25 14:08:00,90.9,76.6,29.75,SSW,207,5.0,8.0,63,0.00,,SKC,0.00,VWS V14.01,2013-08-25 19:08:00,
2013-08-25 14:13:00,91.4,77.0,29.75,SSW,212,1.0,8.0,63,0.00,,SKC,0.00,VWS V14.01,2013-08-25 19:13:00,
2013-08-25 14:18:00,91.9,77.0,29.74,SE,126,0.0,8.0,62,0.00,,SKC,0.00,VWS V14.01,2013-08-25 19:18:00,
2013-08-25 14:23:00,91.6,76.2,29.75,SW,214,6.0,9.0,61,0.00,,SKC,0.00,VWS V14.01,2013-08-25 19:23:00,
2013-08-25 14:28:00,91.7,77.3,29.74,SSE,165,0.0,9.0,63,0.00,,SKC,0.00,VWS V14.01,2013-08-25 19:28:00,
2013-08-25 14:30:00,89.5,76.7,29.76,SW,221,2.0,9.0,66,0.00,,SKC,0.00,VWS V14.01,2013-08-25 19:30:00,
2013-08-25 14:33:00,91.8,76.9,29.74,SSW,213,1.0,7.0,62,0.00,,SKC,0.00,VWS V14.01,2013-08-25 19:33:00,
2013-08-25 14:38:00,91.7,76.3,29.74,SSW,199,6.0,8.0,61,0.00,,SKC,0.00,VWS V14.01,2013-08-25 19:38:00,
2013-08-25 14:43:00,91.8,76.4,29.74,SSW,202,0.0,8.0,61,0.00,,SKC,0.00,VWS V14.01,2013-08-25 19:43:00,
2013-08-25 14:48:00,91.7,76.3,29.74,SW,219,0.0,8.0,61,0.00,,SKC,0.00,VWS V14.01,2013-08-25 19:48:00,
2013-08-25 14:54:00,91.8,76.9,29.74,SW,223,3.0,8.0,62,0.00,,SKC,0.00,VWS V14.01,2013-08-25 19:54:00,
2013-08-25 14:59:00,92.1,76.7,29.74,WSW,240,2.0,10.0,61,0.00,,SKC,0.00,VWS V14.01,2013-08-25 19:59:00,
2013-08-25 15:00:00,90.5,76.2,29.75,SSW,207,5.0,9.0,63,0.00,,SKC,0.00,VWS V14.01,2013-08-25 20:00:00,
2013-08-25 15:04:00,92.2,76.3,29.74,SSW,192,0.0,7.0,60,0.00,,SKC,0.00,VWS V14.01,2013-08-25 20:04:00,
2013-08-25 15:09:00,92.3,76.9,29.74,SSW,195,0.0,7.0,61,0.00,,SKC,0.00,VWS V14.01,2013-08-25 20:09:00,
2013-08-25 15:14:00,92.1,76.7,29.73,SW,221,0.0,7.0,61,0.00,,SKC,0.00,VWS V14.01,2013-08-25 20:14:00,
2013-08-25 15:19:00,92.2,77.3,29.73,SW,216,4.0,7.0,62,0.00,,SKC,0.00,VWS V14.01,2013-08-25 20:19:00,
2013-08-25 15:24:00,92.0,76.1,29.73,SSW,210,4.0,11.0,60,0.00,,SKC,0.00,VWS V14.01,2013-08-25 20:24:00,
2013-08-25 15:29:00,92.1,76.7,29.74,SW,228,4.0,11.0,61,0.00,,SKC,0.00,VWS V14.01,2013-08-25 20:29:00,
2013-08-25 15:30:00,91.8,76.4,29.74,SW,222,2.0,9.0,61,0.00,,SKC,0.00,VWS V14.01,2013-08-25 20:30:00,
2013-08-25 15:34:00,92.2,76.3,29.74,SSW,203,4.0,8.0,60,0.00,,SKC,0.00,VWS V14.01,2013-08-25 20:34:00,
2013-08-25 15:39:00,92.0,77.1,29.73,SSW,204,0.0,8.0,62,0.00,,SKC,0.00,VWS V14.01,2013-08-25 20:39:00,
2013-08-25 15:44:00,92.1,76.7,29.73,SSW,209,0.0,8.0,61,0.00,,SKC,0.00,VWS V14.01,2013-08-25 20:44:00,
2013-08-25 15:49:00,92.2,76.8,29.73,SSW,213,0.0,8.0,61,0.00,,SKC,0.00,VWS V14.01,2013-08-25 20:49:00,
2013-08-25 15:54:00,92.3,76.9,29.73,SW,219,0.0,8.0,61,0.00,,SKC,0.00,VWS V14.01,2013-08-25 20:54:00,
2013-08-25 15:59:00,92.2,76.8,29.73,SW,215,5.0,8.0,61,0.00,,SKC,0.00,VWS V14.01,2013-08-25 20:59:00,
2013-08-25 16:00:00,92.1,76.2,29.74,SSW,205,7.0,10.0,60,0.00,,SKC,0.00,VWS V14.01,2013-08-25 21:00:00,
2013-08-25 16:04:00,91.8,76.4,29.73,SSW,207,0.0,8.0,61,0.00,,SKC,0.00,VWS V14.01,2013-08-25 21:04:00,
2013-08-25 16:09:00,91.9,77.0,29.73,SSW,212,0.0,8.0,62,0.00,,SKC,0.00,VWS V14.01,2013-08-25 21:09:00,
2013-08-25 16:14:00,91.9,77.5,29.73,SSW,212,0.0,8.0,63,0.00,,SKC,0.00,VWS V14.01,2013-08-25 21:14:00,
2013-08-25 16:19:00,91.8,77.4,29.73,SSW,212,0.0,8.0,63,0.00,,SKC,0.00,VWS V14.01,2013-08-25 21:19:00,
2013-08-25 16:24:00,91.8,76.9,29.73,SW,219,0.0,8.0,62,0.00,,SKC,0.00,VWS V14.01,2013-08-25 21:24:00,
2013-08-25 16:29:00,91.8,76.4,29.73,SW,215,0.0,8.0,61,0.00,,SKC,0.00,VWS V14.01,2013-08-25 21:29:00,
2013-08-25 16:30:00,92.1,76.2,29.73,SW,223,3.0,11.0,60,0.00,,SKC,0.00,VWS V14.01,2013-08-25 21:30:00,
2013-08-25 16:34:00,91.8,77.4,29.72,South,188,0.0,5.0,63,0.00,,SKC,0.00,VWS V14.01,2013-08-25 21:34:00,
2013-08-25 16:39:00,91.8,76.9,29.72,SSW,194,4.0,5.0,62,0.00,,SKC,0.00,VWS V14.01,2013-08-25 21:39:00,
2013-08-25 16:44:00,91.7,77.3,29.72,SSW,207,1.0,7.0,63,0.00,,SKC,0.00,VWS V14.01,2013-08-25 21:44:00,
2013-08-25 16:49:00,91.8,77.4,29.72,SW,217,4.0,7.0,63,0.00,,SKC,0.00,VWS V14.01,2013-08-25 21:49:00,
2013-08-25 16:54:00,91.8,76.9,29.72,SW,230,4.0,7.0,62,0.00,,SKC,0.00,VWS V14.01,2013-08-25 21:54:00,
2013-08-25 16:59:00,91.7,77.3,29.73,SW,227,3.0,7.0,63,0.00,,SKC,0.00,VWS V14.01,2013-08-25 21:59:00,
2013-08-25 17:00:00,92.0,76.6,29.73,SSW,209,8.0,10.0,61,0.00,,SKC,0.00,VWS V14.01,2013-08-25 22:00:00,
2013-08-25 17:05:00,91.6,76.7,29.72,SW,221,4.0,6.0,62,0.00,,SKC,0.00,VWS V14.01,2013-08-25 22:05:00,
2013-08-25 17:10:00,91.5,76.7,29.72,SSW,212,4.0,8.0,62,0.00,,SKC,0.00,VWS V14.01,2013-08-25 22:10:00,
2013-08-25 17:15:00,91.4,77.0,29.72,SSW,192,0.0,8.0,63,0.00,,SKC,0.00,VWS V14.01,2013-08-25 22:15:00,
2013-08-25 17:20:00,91.3,77.4,29.72,WSW,252,0.0,8.0,64,0.00,,SKC,0.00,VWS V14.01,2013-08-25 22:20:00,
2013-08-25 17:25:00,91.2,77.8,29.72,WSW,247,2.0,8.0,65,0.00,,SKC,0.00,VWS V14.01,2013-08-25 22:25:00,
2013-08-25 17:30:00,91.1,77.2,29.73,South,182,5.0,8.0,64,0.00,,SKC,0.00,VWS V14.01,2013-08-25 22:30:00,
2013-08-25 17:35:00,91.1,77.2,29.73,SSW,200,1.0,6.0,64,0.00,,SKC,0.00,VWS V14.01,2013-08-25 22:35:00,
2013-08-25 17:40:00,91.0,77.1,29.73,SSW,202,0.0,6.0,64,0.00,,SKC,0.00,VWS V14.01,2013-08-25 22:40:00,
2013-08-25 17:45:00,90.9,77.5,29.73,South,175,0.0,6.0,65,0.00,,SKC,0.00,VWS V14.01,2013-08-25 22:45:00,
2013-08-25 17:50:00,90.7,77.3,29.73,SSW,211,0.0,9.0,65,0.00,,SKC,0.00,VWS V14.01,2013-08-25 22:50:00,
2013-08-25 17:55:00,90.5,77.6,29.73,SSW,212,0.0,9.0,66,0.00,,SKC,0.00,VWS V14.01,2013-08-25 22:55:00,
2013-08-25 18:00:00,90.4,77.0,29.73,SSW,210,3.0,9.0,65,0.00,,SKC,0.00,VWS V14.01,2013-08-25 23:00:00,
2013-08-25 18:05:00,90.3,76.9,29.73,SW,214,0.0,6.0,65,0.00,,SKC,0.00,VWS V14.01,2013-08-25 23:05:00,
2013-08-25 18:10:00,90.2,76.8,29.73,SW,218,0.0,7.0,65,0.00,,SKC,0.00,VWS V14.01,2013-08-25 23:10:00,
2013-08-25 18:15:00,90.2,76.8,29.73,SW,221,5.0,8.0,65,0.00,,SKC,0.00,VWS V14.01,2013-08-25 23:15:00,
2013-08-25 18:20:00,90.1,77.2,29.73,SW,230,2.0,8.0,66,0.00,,SKC,0.00,VWS V14.01,2013-08-25 23:20:00,
2013-08-25 18:25:00,90.1,77.2,29.73,SW,218,1.0,8.0,66,0.00,,SKC,0.00,VWS V14.01,2013-08-25 23:25:00,
2013-08-25 18:30:00,89.9,77.0,29.73,SW,222,1.0,8.0,66,0.00,,SKC,0.00,VWS V14.01,2013-08-25 23:30:00,
2013-08-25 18:35:00,89.7,76.4,29.73,SW,220,0.0,7.0,65,0.00,,SKC,0.00,VWS V14.01,2013-08-25 23:35:00,
2013-08-25 18:40:00,89.6,76.7,29.73,SW,225,1.0,7.0,66,0.00,,SKC,0.00,VWS V14.01,2013-08-25 23:40:00,
2013-08-25 18:45:00,89.4,76.6,29.73,SW,217,1.0,9.0,66,0.00,,SKC,0.00,VWS V14.01,2013-08-25 23:45:00,
2013-08-25 18:51:00,89.3,76.5,29.73,SSW,213,0.0,9.0,66,0.00,,SKC,0.00,VWS V14.01,2013-08-25 23:51:00,
2013-08-25 18:56:00,89.2,76.4,29.73,SW,226,4.0,9.0,66,0.00,,SKC,0.00,VWS V14.01,2013-08-25 23:56:00,
2013-08-25 19:00:00,90.4,77.0,29.73,SSW,210,0.0,9.0,65,0.00,,SKC,0.00,VWS V14.01,2013-08-26 00:00:00,
2013-08-25 19:01:00,89.1,76.3,29.73,SW,225,6.0,9.0,66,0.00,,SKC,0.00,VWS V14.01,2013-08-26 00:01:00,
2013-08-25 19:06:00,89.0,76.2,29.73,SSW,199,4.0,8.0,66,0.00,,SKC,0.00,VWS V14.01,2013-08-26 00:06:00,
2013-08-25 19:11:00,88.9,76.5,29.73,SSW,207,1.0,8.0,67,0.00,,SKC,0.00,VWS V14.01,2013-08-26 00:11:00,
2013-08-25 19:16:00,88.8,76.4,29.73,SW,226,3.0,8.0,67,0.00,,SKC,0.00,VWS V14.01,2013-08-26 00:16:00,
2013-08-25 19:21:00,88.6,76.2,29.73,SW,229,1.0,8.0,67,0.00,,SKC,0.00,VWS V14.01,2013-08-26 00:21:00,
2013-08-25 19:26:00,88.4,76.5,29.73,SW,227,0.0,8.0,68,0.00,,SKC,0.00,VWS V14.01,2013-08-26 00:26:00,
2013-08-25 19:30:00,89.9,77.0,29.73,SW,222,2.0,8.0,66,0.00,,SKC,0.00,VWS V14.01,2013-08-26 00:30:00,
2013-08-25 19:31:00,88.3,76.4,29.73,SW,227,1.0,6.0,68,0.00,,SKC,0.00,VWS V14.01,2013-08-26 00:31:00,
2013-08-25 19:36:00,88.1,76.2,29.73,WSW,237,0.0,7.0,68,0.00,,SKC,0.00,VWS V14.01,2013-08-26 00:36:00,
2013-08-25 19:41:00,88.0,76.1,29.73,SW,232,1.0,7.0,68,0.00,,SKC,0.00,VWS V14.01,2013-08-26 00:41:00,
2013-08-25 19:46:00,87.9,76.5,29.73,SW,219,0.0,7.0,69,0.00,,SKC,0.00,VWS V14.01,2013-08-26 00:46:00,
2013-08-25 19:51:00,87.7,76.3,29.73,SSW,204,0.0,7.0,69,0.00,,SKC,0.00,VWS V14.01,2013-08-26 00:51:00,
2013-08-25 19:56:00,87.4,76.4,29.73,SSW,205,0.0,7.0,70,0.00,,SKC,0.00,VWS V14.01,2013-08-26 00:56:00,
2013-08-25 20:00:00,89.1,76.3,29.73,SW,225,6.0,9.0,66,0.00,,SKC,0.00,VWS V14.01,2013-08-26 01:00:00,
2013-08-25 20:01:00,87.2,76.2,29.73,SSW,202,0.0,0.0,70,0.00,,SKC,0.00,VWS V14.01,2013-08-26 01:01:00,
2013-08-25 20:06:00,87.1,76.6,29.73,SSW,206,0.0,4.0,71,0.00,,SKC,0.00,VWS V14.01,2013-08-26 01:06:00,
2013-08-25 20:11:00,86.8,76.7,29.74,SSW,206,0.0,4.0,72,0.00,,SKC,0.00,VWS V14.01,2013-08-26 01:11:00,
2013-08-25 20:16:00,86.6,76.5,29.74,SSW,206,0.0,4.0,72,0.00,,SKC,0.00,VWS V14.01,2013-08-26 01:16:00,
2013-08-25 20:21:00,86.4,76.7,29.74,SSW,205,0.0,4.0,73,0.00,,SKC,0.00,VWS V14.01,2013-08-26 01:21:00,
2013-08-25 20:26:00,86.0,76.3,29.74,SSW,205,0.0,4.0,73,0.00,,SKC,0.00,VWS V14.01,2013-08-26 01:26:00,
2013-08-25 20:30:00,88.3,76.4,29.73,SW,227,6.0,9.0,68,0.00,,SKC,0.00,VWS V14.01,2013-08-26 01:30:00,
2013-08-25 20:31:00,85.7,76.5,29.74,SSW,205,0.0,0.0,74,0.00,,SKC,0.00,VWS V14.01,2013-08-26 01:31:00,
2013-08-25 20:36:00,85.5,76.3,29.75,SSW,205,0.0,0.0,74,0.00,,SKC,0.00,VWS V14.01,2013-08-26 01:36:00,
2013-08-25 20:41:00,85.3,76.5,29.75,SSW,205,0.0,0.0,75,0.00,,SKC,0.00,VWS V14.01,2013-08-26 01:41:00,
2013-08-25 20:46:00,85.0,76.2,29.75,SSW,205,0.0,0.0,75,0.00,,SKC,0.00,VWS V14.01,2013-08-26 01:46:00,
2013-08-25 20:52:00,84.7,76.7,29.75,SSW,205,0.0,0.0,77,0.00,,SKC,0.00,VWS V14.01,2013-08-26 01:52:00,
2013-08-25 20:57:00,84.3,76.3,29.76,SSW,205,0.0,0.0,77,0.00,,SKC,0.00,VWS V14.01,2013-08-26 01:57:00,
2013-08-25 21:00:00,87.2,76.2,29.73,SSW,202,0.0,7.0,70,0.00,,SKC,0.00,VWS V14.01,2013-08-26 02:00:00,
2013-08-25 21:02:00,83.8,76.2,29.76,SSW,205,0.0,0.0,78,0.00,,SKC,0.00,VWS V14.01,2013-08-26 02:02:00,
2013-08-25 21:07:00,83.5,76.3,29.76,SSW,205,0.0,0.0,79,0.00,,SKC,0.00,VWS V14.01,2013-08-26 02:07:00,
2013-08-25 21:12:00,83.3,76.1,29.76,SSW,205,0.0,0.0,79,0.00,,SKC,0.00,VWS V14.01,2013-08-26 02:12:00,
2013-08-25 21:17:00,83.2,76.0,29.76,SSW,205,0.0,0.0,79,0.00,,SKC,0.00,VWS V14.01,2013-08-26 02:17:00,
2013-08-25 21:22:00,83.1,76.3,29.77,SSW,205,0.0,0.0,80,0.00,,SKC,0.00,VWS V14.01,2013-08-26 02:22:00,
2013-08-25 21:27:00,82.9,76.1,29.77,SSW,205,0.0,0.0,80,0.00,,SKC,0.00,VWS V14.01,2013-08-26 02:27:00,
2013-08-25 21:30:00,85.7,76.5,29.74,SSW,205,0.0,4.0,74,0.00,,SKC,0.00,VWS V14.01,2013-08-26 02:30:00,
2013-08-25 21:32:00,82.7,76.7,29.77,SSW,205,0.0,0.0,82,0.00,,SKC,0.00,VWS V14.01,2013-08-26 02:32:00,
2013-08-25 21:37:00,82.4,76.4,29.77,SSW,205,0.0,0.0,82,0.00,,SKC,0.00,VWS V14.01,2013-08-26 02:37:00,
2013-08-25 21:42:00,82.1,76.4,29.77,SSW,205,0.0,0.0,83,0.00,,SKC,0.00,VWS V14.01,2013-08-26 02:42:00,
2013-08-25 21:47:00,81.7,76.4,29.77,SSW,205,0.0,0.0,84,0.00,,SKC,0.00,VWS V14.01,2013-08-26 02:47:00,
2013-08-25 21:52:00,81.5,76.2,29.77,SSW,205,0.0,0.0,84,0.00,,SKC,0.00,VWS V14.01,2013-08-26 02:52:00,
2013-08-25 21:57:00,81.3,76.4,29.77,SSW,205,0.0,0.0,85,0.00,,SKC,0.00,VWS V14.01,2013-08-26 02:57:00,
2013-08-25 22:00:00,83.9,76.3,29.76,SSW,205,0.0,0.0,78,0.00,,SKC,0.00,VWS V14.01,2013-08-26 03:00:00,
2013-08-25 22:02:00,81.2,76.3,29.77,SSW,205,0.0,0.0,85,0.00,,SKC,0.00,VWS V14.01,2013-08-26 03:02:00,
2013-08-25 22:07:00,81.1,76.2,29.77,SSW,205,0.0,0.0,85,0.00,,SKC,0.00,VWS V14.01,2013-08-26 03:07:00,
2013-08-25 22:12:00,81.0,76.4,29.77,SSW,205,0.0,0.0,86,0.00,,SKC,0.00,VWS V14.01,2013-08-26 03:12:00,
2013-08-25 22:18:00,80.8,76.2,29.77,SSW,205,0.0,0.0,86,0.00,,SKC,0.00,VWS V14.01,2013-08-26 03:18:00,
2013-08-25 22:23:00,80.7,76.1,29.77,SSW,205,0.0,0.0,86,0.00,,SKC,0.00,VWS V14.01,2013-08-26 03:23:00,
2013-08-25 22:28:00,80.7,76.1,29.77,SSW,205,0.0,0.0,86,0.00,,SKC,0.00,VWS V14.01,2013-08-26 03:28:00,
2013-08-25 22:30:00,82.7,76.3,29.77,SSW,205,0.0,0.0,81,0.00,,SKC,0.00,VWS V14.01,2013-08-26 03:30:00,
2013-08-25 22:33:00,80.7,76.1,29.77,SSW,205,0.0,0.0,86,0.00,,SKC,0.00,VWS V14.01,2013-08-26 03:33:00,
2013-08-25 22:38:00,80.8,76.2,29.77,SSW,205,0.0,0.0,86,0.00,,SKC,0.00,VWS V14.01,2013-08-26 03:38:00,
2013-08-25 22:43:00,81.1,76.2,29.77,SSW,205,0.0,0.0,85,0.00,,SKC,0.00,VWS V14.01,2013-08-26 03:43:00,
2013-08-25 22:48:00,81.4,76.5,29.77,SSW,205,0.0,0.0,85,0.00,,SKC,0.00,VWS V14.01,2013-08-26 03:48:00,
2013-08-25 22:53:00,81.7,76.4,29.77,SSW,205,0.0,0.0,84,0.00,,SKC,0.00,VWS V14.01,2013-08-26 03:53:00,
2013-08-25 22:58:00,82.0,76.3,29.77,SSW,205,0.0,0.0,83,0.00,,SKC,0.00,VWS V14.01,2013-08-26 03:58:00,
2013-08-25 23:00:00,81.2,76.3,29.77,SSW,205,0.0,0.0,85,0.00,,SKC,0.00,VWS V14.01,2013-08-26 04:00:00,
2013-08-25 23:01:00,82.1,76.4,29.77,SSW,205,0.0,0.0,83,0.00,,SKC,0.00,VWS V14.01,2013-08-26 04:01:00,
2013-08-25 23:03:00,82.2,76.5,29.76,SSW,205,0.0,0.0,83,0.00,,SKC,0.00,VWS V14.01,2013-08-26 04:03:00,
2013-08-25 23:08:00,82.3,76.3,29.76,SSW,205,0.0,0.0,82,0.00,,SKC,0.00,VWS V14.01,2013-08-26 04:08:00,
2013-08-25 23:09:00,82.4,76.4,29.76,SSW,205,0.0,0.0,82,0.00,,SKC,0.00,VWS V14.01,2013-08-26 04:09:00,
2013-08-25 23:14:00,82.4,76.4,29.76,SSW,205,0.0,0.0,82,0.00,,SKC,0.00,VWS V14.01,2013-08-26 04:14:00,
2013-08-25 23:19:00,82.4,76.4,29.76,SSW,205,0.0,0.0,82,0.00,,SKC,0.00,VWS V14.01,2013-08-26 04:19:00,
2013-08-25 23:20:00,82.4,76.4,29.76,SSW,205,0.0,0.0,82,0.00,,SKC,0.00,VWS V14.01,2013-08-26 04:20:00,
2013-08-25 23:25:00,82.5,76.4,29.75,SSW,205,0.0,0.0,82,0.00,,SKC,0.00,VWS V14.01,2013-08-26 04:25:00,
2013-08-25 23:30:00,82.6,76.6,29.75,SSW,205,0.0,0.0,82,0.00,,SKC,0.00,VWS V14.01,2013-08-26 04:30:00,
2013-08-25 23:35:00,82.7,76.3,29.75,SSW,205,0.0,0.0,81,0.00,,SKC,0.00,VWS V14.01,2013-08-26 04:35:00,
2013-08-25 23:40:00,82.6,76.2,29.75,SSW,206,0.0,0.0,81,0.00,,SKC,0.00,VWS V14.01,2013-08-26 04:40:00,
2013-08-25 23:45:00,82.5,76.4,29.75,SW,224,0.0,0.0,82,0.00,,SKC,0.00,VWS V14.01,2013-08-26 04:45:00,
2013-08-25 23:51:00,82.5,76.4,29.75,SW,223,0.0,0.0,82,0.00,,SKC,0.00,VWS V14.01,2013-08-26 04:51:00,
2013-08-25 23:56:00,82.4,76.4,29.75,SW,223,0.0,0.0,82,0.00,,SKC,0.00,VWS V14.01,2013-08-26 04:56:00,